sat.trackr.live / text

‹ back to catalog

USA 485

NORAD 62756 · 2025-014X

PAYLOAD ACTIVE UNKNOWN

§ Identity

Operator
Country
US
Launch date
2025-01-21
Launch site
AFETR
Launch vehicle
Mass (kg)
RCS (m²)

External: N2YO · Heavens-Above · Gunter

§ Orbital elements

Epoch: 2026-05-24T23:16:52.879872Z

Period
91.34 min
Inclination
42.9991°
Eccentricity
0.0001145
Mean motion
15.76441511 rev/d
Perigee alt
339.8 km
Apogee alt
341.3 km
Semi-major
6,718.7 km
B*
1.6567e-3
RAAN
251.9345°
Arg perigee
279.6586°
Mean anomaly
80.4154°
Rev number
7,710

§ Raw data

USA 4851 62756U 25014X   26144.97005648  .00279297  00000+0  16567-2 0  99962 62756  42.9991 251.9345 0001145 279.6586  80.4154 15.76441511 77107

JSON: /api/v1/satellites/62756 · /tle

For live sub-satellite position, see the globe view (requires WebGL).

§ Visibility from observer

Set your observer location to see the next 7 days of passes ≥ 10°. The values pass through the URL so the page stays shareable.

No JS? Fill the form by hand. The geolocation button needs JavaScript.